Location: Dollis Hill
(51.5500°N, 0.2333°W)
Time: 01:34:45
(UTC+00:00)

Daily predictions for brighter satellites

Satellite Brightness Start Highest point End
(mag) Time Altitude Azimuth Time Altitude Azimuth Time Altitude Azimuth
Cosmos 2151 Rocket 4.0 00:00:01 10° N 00:04:29 57° ENE 00:06:04 36° SE
Cosmos 1766 3.5 00:01:50 10° N 00:05:47 62° ENE 00:06:41 47° SE
Cosmos 1867 3.6 00:03:46 27° SW 00:06:49 82° NW 00:12:20 10° NE
Okean 3 3.4 00:05:48 50° SSW 00:06:51 79° WNW 00:11:06 10° N
Meteor 2-4 Rocket 4.5 00:06:45 23° SW 00:09:56 45° WNW 00:15:17 10° N
NOSS 2-1 (C) 4.0 00:06:19 10° NW 00:11:00 71° SW 00:14:12 29° SSE
COSMOS 2487 2.2 00:11:09 10° NNW 00:14:34 82° ENE 00:14:48 74° SE
SAR-Lupe-2 4.4 00:12:27 10° N 00:15:52 42° WNW 00:16:40 35° WSW
Cosmos 2227 Rocket 3.6 00:11:27 10° NNW 00:16:40 36° NE 00:21:50 10° ESE
NOSS 2-1 (D) 4.1 00:13:10 10° NW 00:17:51 65° SW 00:20:50 31° SSE
Helios 1A 3.9 00:16:33 25° ESE 00:18:28 41° ENE 00:22:24 10° N
Cosmos 2297 Rocket 3.2 00:14:07 10° NNW 00:19:33 44° NE 00:24:58 10° ESE
Meteor 1-13 Rocket 4.4 00:22:36 32° SW 00:25:07 61° WNW 00:30:36 10° N
Cosmos 1934 Rocket 4.0 00:19:40 10° NNW 00:25:46 67° W 00:28:27 34° SSW
Cosmos 1470 3.8 00:22:31 10° N 00:26:13 38° ENE 00:27:46 27° ESE
Cosmos 1356 Rocket 4.4 00:23:01 10° NNW 00:26:55 35° W 00:27:45 32° WSW
Cosmos 724 4.4 00:24:16 34° SSW 00:27:07 72° SE 00:33:22 10° NE
Cosmos 1378 4.0 00:26:31 35° WSW 00:27:17 39° WNW 00:30:49 10° N
USA 81 4.0 00:22:06 10° N 00:27:26 81° E 00:29:41 36° SSE
Cosmos 1726 3.3 00:26:11 10° N 00:29:38 35° ENE 00:30:59 26° ESE
YAOGAN 11 4.4 00:28:55 32° SE 00:30:42 59° ENE 00:34:58 10° N
Meteor 1-23 Rocket 4.2 00:28:39 36° S 00:31:14 90° ENE 00:37:06 10° NNE
RESURS DK-1 4.4 00:33:00 10° WNW 00:35:19 16° W 00:35:19 16° W
Cosmos 1400 Rocket 2.8 00:35:12 10° N 00:39:19 81° ENE 00:40:29 46° SSE
Cosmos 1842 3.4 00:42:19 47° SSE 00:43:11 62° E 00:47:02 10° NNE
Cosmos 1269 Rocket 4.2 00:39:07 10° NNW 00:44:16 54° WSW 00:46:04 37° SSW
Cosmos 1378 Rocket 3.8 00:43:15 39° SSE 00:44:37 59° E 00:48:53 10° NNE
Cosmos 1315 Rocket 4.2 00:41:42 10° N 00:45:22 34° ENE 00:47:45 18° SE
Cosmos 2251 Rocket 4.1 00:42:05 10° NNW 00:47:16 56° ENE 00:51:33 15° SE
Thor Agena Rocket 4.1 00:43:11 10° N 00:48:16 51° WNW 00:50:54 27° SW
COSMOS 2455 2.8 00:44:28 10° NW 00:50:32 87° SW 00:55:11 18° SSE
Cosmos 44 Rocket 4.2 00:46:16 10° NW 00:50:52 32° WSW 00:51:32 31° SW
Cosmos 2221 Rocket 3.8 00:49:20 38° SW 00:50:53 62° WNW 00:55:26 10° N
ISS -3.8 00:51:31 22° W 00:53:32 87° N 00:56:56 10° E
Okean 2 3.7 00:53:24 38° SSE 00:54:44 59° E 00:58:51 10° NNE
Cosmos 1727 Rocket 4.1 00:55:08 28° S 00:58:38 71° E 01:04:59 10° NNE
SeaSat 1 2.4 00:54:29 10° NNE 00:59:28 86° WNW 01:01:43 33° SW
SL-24 R/B 4.1 00:59:02 39° S 01:00:31 65° WSW 01:04:46 10° NNW
Cosmos 2219 3.4 00:58:07 10° NNW 01:03:51 73° ENE 01:09:18 11° SE
Okean 1 Rocket 3.0 00:59:55 10° NNW 01:04:20 78° W 01:05:54 39° S
Cosmos 1943 Rocket 4.5 01:01:43 10° WNW 01:05:40 19° NNW 01:09:36 10° NNE
SL-16 R/B 3.0 01:00:16 12° SE 01:05:59 61° ENE 01:12:09 10° NNW
CZ-4 R/B 3.9 01:02:15 10° NNE 01:07:08 75° ESE 01:09:13 34° S
EO 1 Del DPAF 4.0 01:07:08 10° N 01:10:40 41° WNW 01:11:46 32° WSW
Cosmos 1674 Rocket 3.7 01:12:00 36° SW 01:13:39 64° WNW 01:18:08 10° N
Cosmos 1707 3.0 01:12:58 37° SSE 01:14:15 59° E 01:18:02 10° NNE
Cosmos 2369 Rocket 4.1 01:11:02 10° W 01:15:35 24° NW 01:20:11 10° NNE
Cosmos 371 Rocket 4.3 01:14:23 24° SSE 01:16:44 38° ESE 01:21:15 10° NE
Meteor 2-10 4.2 01:12:11 10° NNW 01:17:28 58° W 01:19:48 31° SSW
ADEOS II 3.9 01:14:38 10° NE 01:18:50 23° E 01:22:59 10° SE
Helios 1B rocket 3.5 01:16:37 10° NNE 01:20:29 36° E 01:22:33 22° SSE
ATLAS CENTAUR R/B 2.9 01:17:59 13° W 01:20:45 29° NNW 01:24:13 10° NNE
USA 215 3.6 01:17:22 19° SSE 01:21:42 41° SW 01:27:51 10° WNW
Cosmos 1908 4.3 01:21:57 10° N 01:25:41 42° ENE 01:28:34 15° SE
CZ-2D R/B 2.7 01:20:31 10° NNE 01:25:49 51° E 01:29:09 21° SSE
APEX 4.2 01:25:11 10° NNW 01:29:22 59° NE 01:34:35 10° SE
Cosmos 1459 Rocket 4.0 01:23:22 10° N 01:29:42 88° WSW 01:34:06 20° S
Cosmos 1544 Rocket 4.5 01:28:04 10° N 01:32:19 46° ENE 01:36:16 12° SSE
Resurs 1-4 Rocket 2.5 01:27:31 10° NNE 01:32:44 58° ESE 01:36:01 22° S
Lacrosse 5 1.8 01:29:52 25° SW 01:32:52 85° SSE 01:38:00 10° ENE
USA 281 3.2 01:28:44 18° SSE 01:33:47 66° WSW 01:40:21 10° NNW
Meteor 1-16 Rocket 4.5 01:32:27 10° N 01:38:26 76° ENE 01:43:40 13° SSE
Cosmos 2016 Rocket 4.1 01:32:54 10° N 01:39:13 78° E 01:44:39 14° SSE
Cosmos 1953 2.5 01:35:19 10° N 01:39:18 70° ENE 01:41:52 21° SSE
Lacrosse 4 Rocket 3.3 01:37:27 14° SSE 01:39:51 22° ESE 01:43:15 10° ENE
Cosmos 1697 Rocket 3.7 01:37:11 18° SSE 01:40:47 37° ESE 01:45:54 10° NE
Meteor 2-11 Rocket 4.4 01:35:34 10° N 01:41:46 90° WSW 01:46:45 17° S
Cosmos 407 Rocket 3.9 01:36:34 10° NNW 01:41:54 66° ENE 01:47:14 10° SE
Cosmos 1455 Rocket 3.0 01:38:08 10° N 01:42:31 87° E 01:45:16 22° S
CZ-3B R/B 4.0 01:18:53 10° SW 01:42:31 69° SSE 01:47:34 10° ENE
Cosmos 2173 Rocket 4.0 01:39:30 10° NNW 01:45:38 69° W 01:49:59 21° S
Cosmos 2061 Rocket 4.1 01:41:41 10° N 01:48:03 84° E 01:53:55 13° S
Timation 2 Rocket 3.9 01:42:22 10° NW 01:48:16 61° WSW 01:53:37 13° SSE
MOZ.5/SAFIR/RUBIN 5/SL-8 4.2 01:46:29 28° SSW 01:48:29 43° W 01:52:55 10° NNW
USA 276 2.3 01:52:28 40° SSW 01:53:12 52° SSE 01:56:19 10° E
Cosmos 1980 Rocket 3.8 01:48:51 10° SSE 01:53:28 26° ESE 01:58:07 10° NE
Helios 1A 4.3 01:53:09 22° WSW 01:54:10 24° W 01:57:36 10° NW
GP-B 4.3 01:52:21 10° NNE 01:56:32 39° E 02:00:43 10° SSE
TSX-5 3.8 01:56:48 10° NW 02:00:04 47° WSW 02:02:15 22° S
Cosmos 2227 Rocket 2.3 01:55:28 10° NW 02:00:59 54° WSW 02:05:43 14° S
Meteor 1-29 3.6 01:58:32 10° NNE 02:01:51 49° E 02:03:52 21° SSE
Cosmos 1470 4.3 01:59:01 10° NW 02:02:03 22° W 02:03:04 19° WSW
Cosmos 2297 Rocket 2.7 01:58:19 10° NW 02:03:36 41° WSW 02:07:13 19° S
Cosmos 1726 3.6 02:01:46 10° NW 02:04:35 21° W 02:05:25 19° WSW
Cosmos 1674 2.6 02:06:17 25° SSW 02:08:27 84° W 02:12:19 10° N
SL-19 R/B 4.3 02:03:23 10° NNE 02:09:04 78° ESE 02:13:13 18° S
MINOTAUR 4 R/B 4.1 02:07:15 23° S 02:09:18 62° WSW 02:12:51 10° NNW
In-Cosmos 22 4.3 02:08:31 21° SSW 02:12:20 67° WNW 02:17:48 10° N
CZ-4C R/B 4.3 02:09:08 10° SE 02:13:15 51° ENE 02:17:13 10° N
Cosmos 2369 4.4 02:08:56 15° S 02:13:24 49° ESE 02:18:55 10° NE
SL-14 R/B 4.2 02:13:00 12° SSE 02:16:21 45° E 02:20:10 10° NNE
Cosmos 1802 Rocket 4.2 02:10:30 10° NNW 02:16:26 52° W 02:21:07 16° SSW
Cosmos 2082 3.7 02:10:50 10° NNW 02:16:32 73° WSW 02:22:13 10° SSE
Cosmos 2056 Rocket 4.4 02:12:37 12° S 02:16:59 41° ESE 02:21:47 10° NE
ARGOS Delta rocket 3.8 02:12:42 10° NNE 02:17:21 83° E 02:21:12 16° S
UNK 4.2 02:16:25 20° SSW 02:19:11 41° W 02:23:33 10° NNW
Cosmos 1023 Rocket 4.4 02:14:05 10° NNW 02:19:19 74° WSW 02:24:34 10° SSE
Cosmos 1975 Rocket 3.4 02:17:06 22° SW 02:19:44 52° WNW 02:23:59 10° N
Cosmos 304 Rocket 3.9 02:17:54 19° SSW 02:21:23 76° ESE 02:26:13 10° NNE
Cosmos 1315 Rocket 4.0 02:18:28 10° NW 02:21:48 26° W 02:23:26 20° SW
Cosmos 2123 Rocket 4.0 02:19:49 16° SSW 02:24:49 76° W 02:31:05 10° N
DELTA 2 DEB (DPAF) 4.1 02:21:17 10° S 02:25:44 76° WSW 02:30:13 10° NNW
Cosmos 1656 3.9 02:22:25 18° SW 02:26:30 63° NW 02:32:02 10° NNE
Cosmos 1626 2.1 02:24:28 18° S 02:27:06 87° E 02:30:49 10° N
Cosmos 1371 Rocket 4.4 02:25:13 13° S 02:29:42 58° ESE 02:34:49 10° NNE
ISS -3.6 02:27:00 10° W 02:30:16 49° SSW 02:33:34 10° SE
Aureole 2 Rocket 3.3 02:30:03 10° N 02:32:36 38° ENE 02:35:09 10° SE
IRS-1D 3.8 02:28:55 10° NNE 02:34:18 74° ESE 02:39:28 11° S
Cosmos 1300 2.7 02:31:44 10° N 02:35:34 83° ENE 02:39:23 10° SSE
COSMOS 2455 4.2 02:31:32 10° WNW 02:35:40 20° WSW 02:38:15 15° SW
SeaSat 1 4.3 02:32:40 10° NNE 02:36:26 22° NW 02:40:11 10° W
Cosmos 1140 Rocket 3.6 02:31:50 10° NNW 02:36:57 56° WSW 02:42:02 10° S
KORONAS-FOTON 4.5 02:34:54 18° SW 02:37:27 42° WNW 02:41:12 10° N
IDEFIX/ARIANE 42P 3.2 02:35:13 10° NNE 02:40:25 56° E 02:45:35 10° S
Cosmos 1025 Rocket 3.3 02:41:17 16° SSW 02:44:41 54° WNW 02:49:00 10° N
Cosmos 2219 4.4 02:43:05 10° NW 02:47:29 23° WSW 02:51:10 13° SSW
SL-16 R/B 3.5 02:45:21 13° SSW 02:49:59 30° W 02:55:25 10° NNW
SL-08 R/B 3.9 02:45:56 10° SSE 02:50:32 60° ENE 02:55:06 10° N
Cosmos 1455 4.4 02:48:07 10° N 02:51:29 28° ENE 02:54:52 10° SE
Meteor 2-10 Rocket 4.1 02:46:00 10° N 02:51:46 67° ENE 02:57:18 10° SSE
Helios 1B rocket 3.7 02:52:05 10° N 02:55:37 28° WNW 02:58:51 12° WSW
Cosmos 2322 Rocket 4.5 02:52:18 10° SE 02:56:13 20° E 03:00:11 10° NE
Cosmos 2263 Rocket 2.3 02:50:58 10° NNW 02:56:40 86° ENE 03:02:21 10° SSE
Cosmos 371 Rocket 4.3 02:53:02 12° WSW 02:57:10 36° NW 03:01:43 10° NNE
ADEOS II 2.3 02:53:44 10° N 02:58:57 62° WNW 03:04:03 10° SSW
ATLAS CENTAUR R/B 4.0 02:58:52 10° NW 03:00:50 13° N 03:02:53 10° NNE
Iridium 2 3.8 02:57:31 10° SSW 03:01:15 63° W 03:05:03 10° N
Cosmos 1190 Rocket 4.4 02:56:25 10° NW 03:01:18 42° WSW 03:06:12 10° S
ARIANE 5 R/B 3.3 02:56:30 10° NNE 03:01:32 51° E 03:06:29 10° S
Meteor 1-24 Rocket 3.8 02:56:07 10° S 03:01:38 75° E 03:07:00 10° NNE
Cosmos 332 Rocket 4.3 02:57:41 12° SW 03:01:58 48° WNW 03:06:42 10° NNE
ADEOS Rocket 3.7 02:54:46 10° S 03:02:12 59° W 03:09:55 10° NNW
Cosmos 2084 4.1 02:59:57 10° NW 03:04:20 64° NE 03:08:49 10° ESE
CZ-2D R/B 3.3 03:00:56 10° N 03:05:39 31° WNW 03:10:18 10° WSW
Cosmos 1340 2.6 03:06:02 10° S 03:09:46 90° SE 03:13:33 10° NNE
Resurs 1-4 Rocket 3.4 03:07:53 10° N 03:12:15 27° WNW 03:16:36 10° WSW
Meteor 1-28 Rocket 4.1 03:09:15 10° SSW 03:12:34 30° W 03:15:54 10° NNW
Cosmos 1420 Rocket 4.2 03:07:32 10° SSW 03:12:43 75° ESE 03:17:55 10° NNE
Cosmos 1464 Rocket 4.1 03:06:32 10° N 03:12:43 82° E 03:18:56 10° SSE
CZ-4B R/B 3.9 03:08:31 10° NNE 03:13:29 66° ESE 03:18:34 10° S
Cosmos 2058 Rocket 4.2 03:09:09 10° N 03:13:32 48° ENE 03:17:54 10° SSE
Cosmos 1953 4.4 03:13:15 10° NW 03:15:07 13° W 03:17:00 10° WSW
Lacrosse 5 2.8 03:11:17 10° W 03:16:13 48° N 03:21:11 10° ENE
Cosmos 1606 Rocket 3.6 03:12:38 10° NNW 03:17:04 84° W 03:21:29 10° S
Cosmos 1726 Rocket 3.7 03:12:40 10° N 03:17:05 79° E 03:21:29 10° SSE
Lacrosse 4 Rocket 1.8 03:13:46 10° SW 03:18:11 61° NW 03:22:34 10° NNE
Cosmos 2228 3.0 03:15:44 10° NNW 03:19:59 66° W 03:24:15 10° S
Meteor 2-5 Rocket 3.8 03:14:59 10° SSW 03:20:39 67° WNW 03:26:15 10° N
CENTAUR R/B 4.5 03:16:41 10° SSE 03:21:15 23° ESE 03:26:25 10° ENE
Cosmos 2034 Rocket 4.4 03:16:23 10° N 03:22:46 72° ENE 03:29:04 10° SSE
Cosmos 1697 Rocket 3.3 03:19:16 10° SW 03:24:39 47° NW 03:30:06 10° NNE
Cosmos 676 Rocket 4.4 03:20:12 10° NW 03:25:09 43° WSW 03:30:07 10° S
CBERS-1 4.4 03:24:20 10° N 03:29:16 51° WNW 03:34:12 10° SW
USA 276 2.1 03:26:08 10° W 03:29:17 64° S 03:32:26 10° ESE
